Weather History for Monett, MO

Change the Weather History Date:

Thursday, July 4, 2013

  Actual Average (KJLN) Record (KJLN)
Temperature  
Mean Temperature 70 °F 80 °F  
Max Temperature 82 °F 90 °F 102 °F (1954)
Min Temperature 59 °F 69 °F 56 °F (1968)
Degree Days  
Heating Degree Days 0 0  
Month to date heating degree days 0  
Since 1 June heating degree days 5  
Since 1 July heating degree days 0  
Cooling Degree Days 6 14  
Month to date cooling degree days 56  
Year to date cooling degree days 554  
Since 1 June cooling degree days 374  
Growing Degree Days 20 (Base 50)    
Moisture  
Dew Point 56 °F    
Average Humidity 61    
Maximum Humidity 82    
Minimum Humidity 35    
Precipitation  
Precipitation 0.00 in 0.14 in 2.92 in (1983)
Month to date precipitation 0.57  
Year to date precipitation 24.38  
Snow  
Snow 0.00 in - - ()
Month to date snowfall  
Since 1 June snowfall  
Since 1 July snowfall  
Snow Depth -    
Sea Level Pressure  
Sea Level Pressure 30.05 in    
Wind  
Wind Speed 7 mph (SE)    
Max Wind Speed 12 mph    
Max Gust Speed 17 mph    
Visibility 10 miles    
Events Thunderstorm    
T = Trace of Precipitation, MM = Missing Value Source: NWS Daily Summary

Daily Weather History Graph

Daily Weather History Graph

Search for Another Location

Airport:

Trip Planner

Search our weather history database for the weather conditions in past years. The results will help you decide how hot, cold, wet, or windy it might be!

Date:

Astronomy

Jul. 04, 2013 Rise Set
Actual Time 6:01 AM CDT 8:38 PM CDT
Civil Twilight 5:31 AM CDT 9:09 PM CDT
Nautical Twilight 4:53 AM CDT 9:47 PM CDT
Astronomical Twilight 4:11 AM CDT 10:29 PM CDT
Moon 3:17 AM CDT (7/4) 5:45 PM CDT (7/4)
Length of Visible Light 15h 37m
Length of Day
14h 36m
Waning Crescent, 11% of the Moon is Illuminated
Jul 4
Waning Crescent
Jul 8
New
Jul 15
First Quarter
Jul 22
Full
Jul 29
Last Quarter

Hourly Weather History & Observations

Time (CDT) Temp. Heat Index Dew Point Humidity Pressure Visibility Wind Dir Wind Speed Gust Speed Precip Events Conditions
12:15 AM 64.4 °F - 53.6 °F 68% 30.07 in 10.0 mi East 8.1 mph - N/A   Clear
12:35 AM 62.6 °F - 53.6 °F 72% 30.07 in 10.0 mi East 6.9 mph - N/A   Clear
12:55 AM 62.6 °F - 53.6 °F 72% 30.07 in 10.0 mi East 8.1 mph - N/A   Clear
1:15 AM 60.8 °F - 53.6 °F 77% 30.07 in 10.0 mi ESE 8.1 mph - N/A   Clear
1:35 AM 60.8 °F - 53.6 °F 77% 30.07 in 10.0 mi ESE 8.1 mph - N/A   Clear
1:55 AM 60.8 °F - 53.6 °F 77% 30.06 in 10.0 mi ESE 8.1 mph - N/A   Clear
2:15 AM 60.8 °F - 53.6 °F 77% 30.06 in 10.0 mi ESE 6.9 mph - N/A   Clear
2:35 AM 60.8 °F - 53.6 °F 77% 30.06 in 10.0 mi ESE 8.1 mph - N/A   Clear
2:55 AM 60.8 °F - 53.6 °F 77% 30.06 in 10.0 mi SE 8.1 mph - N/A   Clear
3:15 AM 60.8 °F - 53.6 °F 77% 30.05 in 10.0 mi SE 6.9 mph - N/A   Clear
3:35 AM 60.8 °F - 53.6 °F 77% 30.05 in 10.0 mi ESE 6.9 mph - N/A   Clear
3:55 AM 60.8 °F - 53.6 °F 77% 30.05 in 10.0 mi ESE 5.8 mph - N/A   Clear
4:15 AM 60.8 °F - 53.6 °F 77% 30.05 in 10.0 mi ESE 5.8 mph - N/A   Clear
4:35 AM 60.8 °F - 53.6 °F 77% 30.05 in 10.0 mi ESE 6.9 mph - N/A   Clear
4:55 AM 59.0 °F - 53.6 °F 82% 30.05 in 10.0 mi ESE 6.9 mph - N/A   Clear
5:15 AM 59.0 °F - 53.6 °F 82% 30.05 in 10.0 mi ESE 6.9 mph - N/A   Clear
5:35 AM 59.0 °F - 53.6 °F 82% 30.05 in 10.0 mi ESE 6.9 mph - N/A   Clear
5:55 AM 59.0 °F - 53.6 °F 82% 30.06 in 10.0 mi ESE 8.1 mph - N/A   Clear
6:15 AM 59.0 °F - 53.6 °F 82% 30.06 in 10.0 mi SE 6.9 mph - N/A   Clear
6:35 AM 59.0 °F - 53.6 °F 82% 30.06 in 10.0 mi ESE 6.9 mph - N/A   Clear
6:55 AM 60.8 °F - 53.6 °F 77% 30.07 in 10.0 mi ESE 6.9 mph - N/A   Clear
7:15 AM 60.8 °F - 55.4 °F 82% 30.07 in 10.0 mi ESE 6.9 mph - N/A   Clear
7:35 AM 62.6 °F - 55.4 °F 77% 30.08 in 10.0 mi ESE 6.9 mph - N/A   Clear
7:55 AM 64.4 °F - 57.2 °F 77% 30.08 in 10.0 mi SE 5.8 mph - N/A   Clear
8:15 AM 66.2 °F - 57.2 °F 73% 30.08 in 10.0 mi SE 5.8 mph - N/A   Clear
8:35 AM 69.8 °F - 59.0 °F 68% 30.09 in 10.0 mi SSE 4.6 mph - N/A   Clear
8:55 AM 71.6 °F - 59.0 °F 64% 30.09 in 10.0 mi South 6.9 mph - N/A   Clear
9:15 AM 73.4 °F - 59.0 °F 61% 30.09 in 10.0 mi SSW 9.2 mph - N/A   Clear
9:35 AM 75.2 °F - 59.0 °F 57% 30.08 in 10.0 mi SW 9.2 mph - N/A   Clear
9:55 AM 75.2 °F - 59.0 °F 57% 30.08 in 10.0 mi SW 9.2 mph 17.3 mph N/A   Clear
10:15 AM 77.0 °F - 59.0 °F 54% 30.09 in 10.0 mi SW 11.5 mph - N/A   Clear
10:35 AM 77.0 °F - 59.0 °F 54% 30.09 in 10.0 mi SW 9.2 mph - N/A   Clear
10:55 AM 78.8 °F - 59.0 °F 51% 30.09 in 10.0 mi West 9.2 mph - N/A   Clear
11:15 AM 78.8 °F - 59.0 °F 51% 30.09 in 10.0 mi SW 10.4 mph - N/A   Clear
11:35 AM 78.8 °F - 59.0 °F 51% 30.08 in 10.0 mi SW 9.2 mph - N/A   Clear
11:55 AM 80.6 °F 81.1 °F 59.0 °F 48% 30.08 in 10.0 mi SW 8.1 mph - N/A   Scattered Clouds
12:15 PM 80.6 °F 81.1 °F 59.0 °F 48% 30.08 in 10.0 mi West 8.1 mph - N/A   Clear
12:35 PM 80.6 °F 80.5 °F 55.4 °F 42% 30.07 in 10.0 mi SW 9.2 mph - N/A   Scattered Clouds
12:55 PM 80.6 °F 80.3 °F 53.6 °F 39% 30.07 in 10.0 mi West 5.8 mph - N/A   Scattered Clouds
1:15 PM 82.4 °F - 51.8 °F 35% 30.06 in 10.0 mi Calm Calm - N/A   Scattered Clouds
1:35 PM 82.4 °F - 51.8 °F 35% 30.05 in 10.0 mi Calm Calm - N/A   Clear
1:55 PM 80.6 °F - 51.8 °F 37% 30.05 in 10.0 mi Calm Calm - N/A   Scattered Clouds
2:15 PM 82.4 °F 81.4 °F 53.6 °F 37% 30.04 in 10.0 mi Calm Calm - N/A   Mostly Cloudy
2:35 PM 82.4 °F 81.4 °F 53.6 °F 37% 30.04 in 10.0 mi South 3.5 mph - N/A   Scattered Clouds
2:55 PM 82.4 °F 81.4 °F 53.6 °F 37% 30.03 in 10.0 mi WSW 5.8 mph - N/A   Scattered Clouds
3:15 PM 82.4 °F 81.4 °F 53.6 °F 37% 30.03 in 10.0 mi SE 3.5 mph - N/A   Mostly Cloudy
3:35 PM 82.4 °F 81.4 °F 53.6 °F 37% 30.03 in 10.0 mi SW 4.6 mph - N/A   Mostly Cloudy
3:55 PM 82.4 °F 81.4 °F 53.6 °F 37% 30.02 in 10.0 mi Calm Calm - N/A   Scattered Clouds
4:15 PM 82.4 °F 81.7 °F 55.4 °F 39% 30.02 in 10.0 mi NNE 5.8 mph - N/A   Clear
4:35 PM 80.6 °F 80.8 °F 57.2 °F 45% 30.02 in 10.0 mi NNE 6.9 mph - N/A   Clear
4:55 PM 78.8 °F - 59.0 °F 51% 30.01 in 10.0 mi NE 6.9 mph - N/A   Clear
5:15 PM 78.8 °F - 59.0 °F 51% 30.01 in 10.0 mi NE 6.9 mph - N/A   Clear
5:35 PM 80.6 °F 81.1 °F 59.0 °F 48% 30.01 in 10.0 mi NE 5.8 mph - N/A   Scattered Clouds
5:55 PM 78.8 °F - 59.0 °F 51% 30.00 in 10.0 mi ENE 4.6 mph - N/A   Scattered Clouds
6:15 PM 80.6 °F 81.1 °F 59.0 °F 48% 30.00 in 10.0 mi East 4.6 mph - N/A   Clear
6:35 PM 78.8 °F - 55.4 °F 44% 30.00 in 10.0 mi SE 6.9 mph - N/A Thunderstorm Clear
6:55 PM 78.8 °F - 55.4 °F 44% 30.00 in 10.0 mi ESE 5.8 mph - N/A   Clear
7:15 PM 77.0 °F - 55.4 °F 47% 30.00 in 10.0 mi ESE 5.8 mph - N/A   Clear
7:35 PM 77.0 °F - 55.4 °F 47% 30.01 in 10.0 mi East 5.8 mph - N/A   Clear
7:55 PM 75.2 °F - 55.4 °F 50% 30.01 in 10.0 mi East 3.5 mph - N/A   Clear
8:15 PM 73.4 °F - 55.4 °F 53% 30.01 in 10.0 mi East 5.8 mph - N/A   Clear
8:35 PM 71.6 °F - 57.2 °F 60% 30.01 in 10.0 mi East 6.9 mph - N/A   Clear
8:55 PM 69.8 °F - 57.2 °F 64% 30.01 in 10.0 mi ESE 8.1 mph - N/A   Scattered Clouds
9:15 PM 69.8 °F - 57.2 °F 64% 30.02 in 10.0 mi East 8.1 mph - N/A   Scattered Clouds
9:35 PM 69.8 °F - 55.4 °F 60% 30.03 in 10.0 mi East 8.1 mph - N/A   Clear
9:55 PM 68.0 °F - 55.4 °F 64% 30.03 in 10.0 mi ESE 6.9 mph - N/A   Clear
10:15 PM 66.2 °F - 55.4 °F 68% 30.03 in 10.0 mi ESE 6.9 mph - N/A   Clear
10:35 PM 64.4 °F - 57.2 °F 77% 30.03 in 10.0 mi ESE 6.9 mph - N/A   Clear
10:55 PM 64.4 °F - 57.2 °F 77% 30.04 in 10.0 mi ESE 8.1 mph - N/A   Clear
11:15 PM 64.4 °F - 57.2 °F 77% 30.03 in 10.0 mi ESE 6.9 mph - N/A   Clear
11:35 PM 64.4 °F - 57.2 °F 77% 30.04 in 10.0 mi ESE 6.9 mph - N/A   Clear
11:55 PM 64.4 °F - 57.2 °F 77% 30.03 in 10.0 mi ESE 8.1 mph - N/A   Clear